Location: Kellogg
(38.0159°N, 90.0546°W)
Time: 23:27:19
(UTC+00:00)

Vanguard 2 - Pass Details

Date: 22 September 2024
Orbit: 552 x 2910 km, 32.9° (Epoch: 09 October)

Event Time Altitude Azimuth Distance (km) Brightness Sun altitude
Rises 10:17:20 0° 266° (W) 2,866 - -18.6°
Reaches altitude 10° 10:19:24 10° 259° (W) 2,084 - -18.2°
Exits shadow 10:21:52 30° 237° (WSW) 1,327 8.2 -17.7°
Maximum altitude 10:23:52 44° 187° (S) 1,143 8.2 -17.3°
Drops below altitude 10° 10:30:34 10° 118° (ESE) 3,107 11.3 -16.0°
Sets 10:34:17 0° 112° (ESE) 4,472 12.4 -15.3°
